DateTimeUTC,F1_A11,F1_S11,BsB_S11,BsG_S11,BsR_S11,BbsB_S11,BbsG_S11,BbsR_S11,BaB_A11,BaG_A11,BaR_A11,Tu_S11,T_S11,Uu_S11,U_S11,P_S11,T1_A11
2021-03-14T07:00:00Z,00000200,21000000,,,,,,,-000.15,0000.28,-000.06,15.9,23.7,,00.0,0639.3,30.8
2021-03-14T07:01:00Z,00000200,21000000,,,,,,,0000.22,-000.17,0000.50,15.9,23.7,,00.0,0639.3,30.8
2021-03-14T07:02:00Z,00000200,21000000,,,,,,,0000.05,-000.23,-000.25,16.0,23.7,,00.0,0639.3,30.8
2021-03-14T07:03:00Z,00000200,61000000,,,,,,,-000.24,0000.42,0000.32,16.0,23.7,,00.0,0639.3,30.8
2021-03-14T07:04:00Z,00000200,41000000,0000.40,0000.23,0000.19,0000.37,-000.04,0000.12,0000.17,-000.07,-000.29,16.4,23.6,,00.0,0640.2,30.9
2021-03-14T07:05:00Z,00000200,01000000,-000.11,-000.03,0000.33,0000.02,0000.00,0000.14,0000.05,-000.01,-000.07,16.5,23.6,,00.0,0640.3,30.9
2021-03-14T07:06:00Z,00000200,01000000,0000.12,0000.34,0000.14,0000.31,0000.04,0000.05,0000.32,0000.24,0000.28,16.5,23.6,,00.0,0640.3,30.9
2021-03-14T07:07:00Z,00000200,01000000,0000.88,0000.13,0000.17,0000.22,-000.04,-000.08,0000.12,0000.10,-000.01,16.5,23.6,,00.0,0640.3,30.9
2021-03-14T07:08:00Z,00000200,01000000,0000.51,0000.34,-000.03,0000.08,0000.25,0000.29,-000.17,0000.19,0000.09,16.6,23.6,,00.0,0640.3,30.9
2021-03-14T07:09:00Z,00000200,01000000,0000.70,0000.22,0000.23,0000.26,-000.18,-000.21,-000.08,-000.04,-000.16,16.6,23.6,,00.0,0640.3,30.9
2021-03-14T07:10:00Z,00000200,01000000,0000.73,0000.07,0000.03,-000.27,-000.03,0000.21,-000.05,0000.11,0000.23,16.6,23.6,,00.0,0640.3,30.9
2021-03-14T07:11:00Z,00000200,01000000,0000.82,0000.41,0000.35,0000.15,-000.01,0000.13,-000.15,-000.17,-000.14,16.6,23.6,,00.0,0640.3,30.9
2021-03-14T07:12:00Z,00000200,01000000,0000.20,0000.21,0000.33,0000.06,-000.05,0000.28,0000.43,-000.42,-000.06,16.5,23.6,,00.0,0640.3,30.9
2021-03-14T07:13:00Z,00000200,01000000,0000.01,0000.37,0000.32,0000.05,0000.17,0000.22,-000.23,0000.22,-000.12,16.5,23.6,,00.0,0640.3,30.9
2021-03-14T07:14:00Z,00000200,01000000,0000.07,0000.27,0000.22,-000.18,0000.37,-000.12,0000.04,0000.25,0000.22,16.6,23.6,,00.0,0640.3,30.9
2021-03-14T07:15:00Z,00000200,01000000,0000.47,0000.14,0000.03,0000.39,-000.16,0000.06,0000.18,-000.29,0000.12,16.6,23.6,,00.0,0640.3,30.9
2021-03-14T07:16:00Z,00000200,01000000,0000.79,0000.13,0000.24,0000.29,-000.11,-000.02,-000.03,0000.33,-000.54,16.6,23.6,,00.0,0640.4,30.9
2021-03-14T07:17:00Z,00000200,01000000,0001.00,0000.11,0000.39,-000.13,0000.18,0000.12,0000.20,0000.06,0000.43,16.5,23.6,,00.0,0640.4,30.9
2021-03-14T07:18:00Z,00000200,01000000,0000.52,-000.08,0000.20,-000.07,-000.02,0000.05,-000.29,-000.01,-000.27,16.5,23.6,,00.0,0640.4,30.8
2021-03-14T07:19:00Z,00000200,01000000,0000.13,0000.30,0000.06,0000.17,0000.03,0000.10,-000.32,-000.43,-000.03,16.4,23.5,,00.0,0640.4,30.8
2021-03-14T07:20:00Z,00000200,01000000,0000.60,0000.11,-000.05,-000.35,-000.03,-000.11,0000.11,0000.03,0000.13,16.3,23.5,,00.0,0640.4,30.8
2021-03-14T07:21:00Z,00000200,01000000,-000.23,0000.26,0000.20,0000.11,-000.05,0000.12,0000.26,0000.07,-000.10,16.2,23.5,,00.0,0640.4,30.8
2021-03-14T07:22:00Z,00000200,01000000,0000.41,0000.37,0000.13,0000.34,-000.08,0000.00,-000.00,-000.13,-000.13,16.2,23.4,,00.0,0640.4,30.8
2021-03-14T07:23:00Z,00000200,01000000,0000.84,0000.32,0000.31,0000.18,-000.04,0000.18,-000.42,0000.24,0000.27,16.1,23.4,,00.0,0640.4,30.8
2021-03-14T07:24:00Z,00000200,01000000,-000.08,0000.04,-000.00,0000.42,0000.05,-000.16,-000.02,-000.14,-000.35,16.0,23.3,,00.0,0640.4,30.8
2021-03-14T07:25:00Z,00000200,01000000,0000.66,0000.28,0000.03,0000.08,0000.18,-000.04,0000.11,-000.46,0000.23,15.9,23.3,,00.0,0640.5,30.8
2021-03-14T07:26:00Z,00000200,01000000,0000.55,0000.28,0000.15,0000.05,0000.04,-000.12,-000.20,0000.20,-000.08,15.9,23.3,,00.0,0640.5,30.8
2021-03-14T07:27:00Z,00000200,01000000,0000.94,-000.07,0000.11,0000.62,0000.00,-000.01,0000.16,-000.02,0000.25,15.9,23.2,,00.0,0640.5,30.8
2021-03-14T07:28:00Z,00000200,01000000,0000.44,0000.15,-000.01,0000.15,-000.08,-000.11,0000.13,0000.13,-000.23,15.9,23.2,,00.0,0640.4,30.8
2021-03-14T07:29:00Z,00000200,01000000,0000.19,0000.27,0000.11,0000.38,0000.04,-000.30,-000.07,0000.07,0000.11,16.0,23.2,,00.0,0640.4,30.8
2021-03-14T07:30:00Z,00000200,01000000,0000.20,0000.18,0000.23,-000.19,0000.20,0000.05,0000.20,-000.28,0000.11,16.0,23.2,,00.0,0640.5,30.8
2021-03-14T07:31:00Z,00000200,01000000,0000.27,0000.23,0000.09,-000.10,0000.05,0000.10,0000.12,0000.23,0000.19,16.1,23.3,,00.0,0640.5,30.8
2021-03-14T07:32:00Z,00000200,01000000,0000.57,-000.05,0000.22,0000.38,-000.02,0000.11,-000.29,0000.28,-000.05,16.2,23.3,,00.0,0640.5,30.8
2021-03-14T07:33:00Z,00000200,01000000,0000.37,0000.10,0000.12,0000.07,0000.10,0000.13,0000.18,0000.16,-000.18,16.2,23.3,,00.0,0640.5,30.8
2021-03-14T07:34:00Z,00000200,01000000,0000.32,0000.31,0000.12,0000.03,-000.07,0000.16,0000.22,-000.37,0000.16,16.3,23.3,,00.0,0640.5,30.8
2021-03-14T07:35:00Z,00000200,01000000,0000.19,-000.10,0000.16,-000.28,0000.15,0000.07,-000.10,0000.36,0000.15,16.3,23.4,,00.0,0640.5,30.9
2021-03-14T07:36:00Z,00000200,01000000,0000.59,-000.16,0000.18,0000.22,0000.22,-000.08,0000.08,0000.15,0000.17,16.4,23.4,,00.0,0640.5,30.9
2021-03-14T07:37:00Z,00000200,01000000,0000.21,-000.03,0000.13,-000.12,0000.06,-000.03,-000.01,-000.04,-000.21,16.4,23.4,,00.0,0640.5,30.9
2021-03-14T07:38:00Z,00000200,01000000,0001.12,0000.18,0000.20,0000.32,0000.07,-000.00,0000.03,0000.10,0000.17,16.4,23.4,,00.0,0640.5,30.9
2021-03-14T07:39:00Z,00000200,01000000,0000.54,-000.08,0000.38,0000.22,0000.04,0000.10,0000.11,-000.12,-000.18,16.4,23.4,,00.0,0640.5,30.8
2021-03-14T07:40:00Z,00000200,01000000,-000.18,0000.14,0000.15,-000.10,0000.03,-000.00,-000.11,0000.17,0000.18,16.3,23.4,,00.0,0640.5,30.8
2021-03-14T07:41:00Z,00000200,01000000,0000.71,0000.22,0000.25,0000.42,-000.08,-000.20,0000.07,-000.03,0000.04,16.2,23.3,,00.0,0640.5,30.8
2021-03-14T07:42:00Z,00000200,01000000,0000.62,0000.30,0000.23,0000.21,0000.15,0000.01,0000.20,0000.23,0000.09,16.2,23.3,,00.0,0640.5,30.8
2021-03-14T07:43:00Z,00000200,01000000,0000.44,0000.30,0000.10,0000.15,0000.19,0000.22,0000.16,-000.23,-000.19,16.3,23.3,,00.0,0640.5,30.8
2021-03-14T07:44:00Z,00000200,01000000,0000.20,0000.11,-000.12,0000.09,0000.05,0000.10,-000.14,0000.39,0000.13,16.3,23.3,,00.0,0640.5,30.8
2021-03-14T07:45:00Z,00000200,01000000,-000.61,0000.42,-000.02,0000.11,-000.02,0000.12,0000.23,-000.30,0000.20,16.4,23.3,,00.0,0640.5,30.8
2021-03-14T07:46:00Z,00000200,01000000,-000.16,0000.10,-000.09,0000.06,-000.14,0000.10,0000.23,0000.37,0000.19,16.4,23.4,,00.0,0640.5,30.9
2021-03-14T07:47:00Z,00000200,01000000,0000.63,0000.22,0000.10,0000.37,0000.07,-000.08,-000.40,-000.28,-000.29,16.5,23.4,,00.0,0640.5,30.9
2021-03-14T07:48:00Z,00000200,01000000,0000.15,0000.56,-000.17,0000.02,-000.17,-000.02,0000.54,0000.42,0000.29,16.5,23.5,,00.0,0640.5,30.9
2021-03-14T07:49:00Z,00000200,01000000,0000.32,0000.16,0000.22,0000.12,0000.22,0000.10,-000.26,-000.00,-000.06,16.5,23.5,,00.0,0640.5,30.9
2021-03-14T07:50:00Z,00000200,01000000,0000.09,0000.17,0000.10,-000.02,0000.09,-000.09,0000.24,-000.01,0000.21,16.6,23.5,,00.0,0640.5,30.9
2021-03-14T07:51:00Z,00000200,01000000,0000.42,-000.09,-000.01,-000.20,0000.10,0000.15,0000.09,0000.38,-000.31,16.6,23.5,,00.0,0640.5,30.9
2021-03-14T07:52:00Z,00000200,01000000,0000.63,0000.32,-000.10,-000.20,-000.01,-000.09,-000.26,-000.60,0000.16,16.6,23.5,,00.0,0640.5,30.9
2021-03-14T07:53:00Z,00000200,01000000,0000.37,0000.20,-000.22,0000.13,0000.07,-000.10,0000.23,0000.52,0000.48,16.5,23.5,,00.0,0640.5,30.9
2021-03-14T07:54:00Z,00000200,01000000,0000.42,0000.12,0000.10,-000.31,0000.14,-000.07,-000.05,-000.19,-000.47,16.4,23.5,,00.0,0640.5,30.8
2021-03-14T07:55:00Z,00000200,01000000,0000.19,0000.06,0000.07,-000.21,0000.24,0000.13,0000.37,0000.38,0000.02,16.3,23.4,,00.0,0640.5,30.8
2021-03-14T07:56:00Z,00000200,01000000,0000.54,0000.08,0000.57,0000.22,-000.02,0000.14,0000.14,-000.35,0000.31,16.2,23.4,,00.0,0640.6,30.8
2021-03-14T07:57:00Z,00000200,41000000,,,,,,,0000.64,0000.91,0000.74,16.2,23.4,,00.0,0640.5,30.8
2021-03-14T07:58:00Z,00000200,61000000,,,,,,,-000.26,0000.02,-000.22,15.9,23.5,,00.0,0639.6,30.8
2021-03-14T07:59:00Z,00000200,21000000,,,,,,,-000.15,-000.30,-000.06,15.9,23.6,,00.0,0639.6,30.8
